• în România
  • Lista ţărilor
  • Pe 7 zile
  • Temperatura apei
  • Hartă satelitară
  • Meteo pe hartă
  • Widget-uri
  • user-avatar
    Intrare

    Meteo pe oră la Chapaevka

    Astăzi, 25 Septembrie, Marţi

    Timp Temperatura Precipitaţii Vânt Presiune Umiditate
    00:00 +14°C° 0 mm 2 m/s 756 mmHg 93%
    01:00 +13°C° 0 mm 2 m/s 756 mmHg 94%
    02:00 +13°C° 0 mm 2 m/s 756 mmHg 94%
    03:00 +13°C° 0 mm 2 m/s 756 mmHg 95%
    04:00 +12°C° 0 mm 2 m/s 756 mmHg 96%
    05:00 +12°C° 0 mm 2 m/s 756 mmHg 96%
    06:00 +11°C° 0 mm 3 m/s 756 mmHg 97%
    07:00 +12°C° 0 mm 3 m/s 756 mmHg 89%
    08:00 +14°C° 0 mm 4 m/s 756 mmHg 82%
    09:00 +15°C° 0 mm 5 m/s 756 mmHg 75%
    10:00 +16°C° 0 mm 5 m/s 756 mmHg 68%
    11:00 +17°C° 0 mm 5 m/s 756 mmHg 61%
    12:00 +19°C° 0 mm 6 m/s 756 mmHg 55%
    13:00 +20°C° 0 mm 6 m/s 756 mmHg 52%
    14:00 +20°C° 0 mm 6 m/s 755 mmHg 49%
    15:00 +20°C° 0 mm 7 m/s 755 mmHg 46%
    16:00 +20°C° 0 mm 6 m/s 755 mmHg 46%
    17:00 +19°C° 0 mm 6 m/s 755 mmHg 46%
    18:00 +17°C° 0 mm 5 m/s 755 mmHg 46%
    19:00 +17°C° 0 mm 6 m/s 755 mmHg 44%
    20:00 +17°C° 0 mm 6 m/s 754 mmHg 41%
    21:00 +17°C° 0 mm 7 m/s 754 mmHg 39%
    22:00 +17°C° 0 mm 7 m/s 755 mmHg 40%
    23:00 +17°C° 0 mm 6 m/s 755 mmHg 41%

    Mâine, 26 Septembrie, Miercuri

    Timp Temperatura Precipitaţii Vânt Presiune Umiditate
    00:00 +17°C° 0 mm 6 m/s 755 mmHg 42%
    01:00 +16°C° 0.1 mm 5 m/s 755 mmHg 51%
    02:00 +15°C° 0.1 mm 4 m/s 756 mmHg 61%
    03:00 +14°C° 0.1 mm 3 m/s 756 mmHg 70%
    04:00 +13°C° 0 mm 3 m/s 757 mmHg 74%
    05:00 +12°C° 0 mm 3 m/s 757 mmHg 78%
    06:00 +12°C° 0 mm 2 m/s 758 mmHg 81%
    07:00 +12°C° 0.7 mm 2 m/s 758 mmHg 80%
    08:00 +12°C° 0.7 mm 2 m/s 759 mmHg 78%
    09:00 +12°C° 0.7 mm 2 m/s 759 mmHg 76%
    10:00 +13°C° 0.3 mm 2 m/s 760 mmHg 73%
    11:00 +12°C° 0.3 mm 3 m/s 760 mmHg 71%
    12:00 +12°C° 0.3 mm 3 m/s 761 mmHg 68%
    13:00 +13°C° 0.1 mm 3 m/s 761 mmHg 66%
    14:00 +13°C° 0.1 mm 3 m/s 761 mmHg 64%
    15:00 +13°C° 0.1 mm 3 m/s 761 mmHg 62%
    16:00 +13°C° 0.1 mm 3 m/s 761 mmHg 65%
    17:00 +12°C° 0.1 mm 3 m/s 762 mmHg 69%
    18:00 +12°C° 0.1 mm 3 m/s 762 mmHg 72%
    19:00 +12°C° 0 mm 2 m/s 762 mmHg 74%
    20:00 +10°C° 0 mm 2 m/s 762 mmHg 77%
    21:00 +9°C° 0 mm 2 m/s 762 mmHg 79%
    22:00 +9°C° 0 mm 2 m/s 762 mmHg 81%
    23:00 +8°C° 0 mm 3 m/s 762 mmHg 83%

    Poimâine, 27 Septembrie, Joi

    Timp Temperatura Precipitaţii Vânt Presiune Umiditate
    00:00 +7°C° 0 mm 3 m/s 763 mmHg 84%
    01:00 +7°C° 0 mm 3 m/s 762 mmHg 87%
    02:00 +6°C° 0 mm 2 m/s 762 mmHg 89%
    03:00 +6°C° 0 mm 2 m/s 762 mmHg 92%
    04:00 +5°C° 0 mm 3 m/s 762 mmHg 92%
    05:00 +4°C° 0 mm 3 m/s 762 mmHg 93%
    06:00 +4°C° 0 mm 3 m/s 762 mmHg 93%
    07:00 +5°C° 0 mm 4 m/s 762 mmHg 83%
    08:00 +7°C° 0 mm 5 m/s 762 mmHg 72%
    09:00 +8°C° 0 mm 6 m/s 761 mmHg 61%
    10:00 +9°C° 0 mm 6 m/s 761 mmHg 56%
    11:00 +10°C° 0 mm 6 m/s 760 mmHg 51%
    12:00 +11°C° 0 mm 7 m/s 760 mmHg 45%
    13:00 +11°C° 0 mm 7 m/s 759 mmHg 44%
    14:00 +11°C° 0 mm 7 m/s 759 mmHg 43%
    15:00 +11°C° 0 mm 8 m/s 758 mmHg 41%
    16:00 +11°C° 0 mm 7 m/s 758 mmHg 44%
    17:00 +10°C° 0 mm 6 m/s 757 mmHg 46%
    18:00 +9°C° 0 mm 5 m/s 757 mmHg 48%
    19:00 +9°C° 0.1 mm 6 m/s 757 mmHg 51%
    20:00 +8°C° 0.1 mm 6 m/s 756 mmHg 55%
    21:00 +8°C° 0.1 mm 6 m/s 756 mmHg 58%
    22:00 +6°C° 0.6 mm 7 m/s 755 mmHg 64%
    23:00 +6°C° 0.6 mm 7 m/s 754 mmHg 69%

    28 Septembrie, Vineri

    Timp Temperatura Precipitaţii Vânt Presiune Umiditate
    00:00 +5°C° 0.6 mm 7 m/s 754 mmHg 75%
    01:00 +6°C° 0.2 mm 7 m/s 754 mmHg 77%
    02:00 +6°C° 0.2 mm 7 m/s 754 mmHg 80%
    03:00 +7°C° 0.2 mm 6 m/s 754 mmHg 82%
    04:00 +7°C° 0 mm 6 m/s 754 mmHg 84%
    05:00 +6°C° 0 mm 5 m/s 755 mmHg 86%
    06:00 +6°C° 0 mm 5 m/s 755 mmHg 88%
    07:00 +7°C° 0 mm 5 m/s 756 mmHg 81%
    08:00 +8°C° 0 mm 6 m/s 756 mmHg 73%
    09:00 +9°C° 0 mm 6 m/s 757 mmHg 65%
    10:00 +10°C° 0 mm 6 m/s 757 mmHg 60%
    11:00 +11°C° 0 mm 6 m/s 757 mmHg 54%
    12:00 +13°C° 0 mm 6 m/s 758 mmHg 48%
    13:00 +13°C° 0 mm 6 m/s 758 mmHg 47%
    14:00 +13°C° 0 mm 6 m/s 758 mmHg 47%
    15:00 +14°C° 0 mm 6 m/s 758 mmHg 46%
    16:00 +12°C° 0 mm 5 m/s 758 mmHg 49%
    17:00 +11°C° 0 mm 4 m/s 757 mmHg 53%
    18:00 +10°C° 0 mm 3 m/s 757 mmHg 56%
    19:00 +10°C° 0 mm 4 m/s 757 mmHg 56%
    20:00 +9°C° 0 mm 5 m/s 757 mmHg 55%
    21:00 +9°C° 0 mm 5 m/s 757 mmHg 55%
    22:00 +10°C° 0 mm 6 m/s 756 mmHg 56%
    23:00 +10°C° 0 mm 6 m/s 756 mmHg 56%

    29 Septembrie, Sâmbătă

    Timp Temperatura Precipitaţii Vânt Presiune Umiditate
    00:00 +10°C° 0 mm 7 m/s 755 mmHg 57%
    01:00 +10°C° 0 mm 7 m/s 755 mmHg 60%
    02:00 +10°C° 0 mm 7 m/s 754 mmHg 62%
    03:00 +10°C° 0 mm 7 m/s 754 mmHg 65%
    04:00 +11°C° 0 mm 8 m/s 754 mmHg 68%
    05:00 +11°C° 0 mm 8 m/s 754 mmHg 71%
    06:00 +11°C° 0 mm 8 m/s 754 mmHg 74%
    07:00 +11°C° 0.2 mm 7 m/s 755 mmHg 76%
    08:00 +11°C° 0.2 mm 7 m/s 755 mmHg 79%
    09:00 +13°C° 0.2 mm 6 m/s 756 mmHg 81%
    10:00 +13°C° 0.1 mm 5 m/s 757 mmHg 79%
    11:00 +13°C° 0.1 mm 4 m/s 757 mmHg 76%
    12:00 +13°C° 0.1 mm 3 m/s 758 mmHg 74%
    13:00 +13°C° 0.1 mm 3 m/s 758 mmHg 72%
    14:00 +13°C° 0.1 mm 2 m/s 759 mmHg 70%
    15:00 +13°C° 0.1 mm 2 m/s 759 mmHg 68%
    16:00 +12°C° 0.1 mm 2 m/s 759 mmHg 68%
    17:00 +12°C° 0.1 mm 2 m/s 760 mmHg 68%
    18:00 +11°C° 0.1 mm 1 m/s 760 mmHg 68%
    19:00 +10°C° 0 mm 2 m/s 760 mmHg 67%
    20:00 +10°C° 0 mm 2 m/s 761 mmHg 67%
    21:00 +9°C° 0 mm 2 m/s 761 mmHg 67%
    22:00 +9°C° 0.1 mm 2 m/s 761 mmHg 67%
    23:00 +9°C° 0.1 mm 2 m/s 761 mmHg 68%

    30 Septembrie, Duminică

    Timp Temperatura Precipitaţii Vânt Presiune Umiditate
    00:00 +8°C° 0.1 mm 3 m/s 761 mmHg 69%
    01:00 +8°C° 0.1 mm 2 m/s 761 mmHg 70%
    02:00 +8°C° 0.1 mm 2 m/s 762 mmHg 70%
    03:00 +8°C° 0.1 mm 2 m/s 762 mmHg 71%
    04:00 +7°C° 0.2 mm 2 m/s 762 mmHg 71%
    05:00 +7°C° 0.2 mm 2 m/s 762 mmHg 72%
    06:00 +7°C° 0.2 mm 2 m/s 762 mmHg 73%
    07:00 +7°C° 0.2 mm 2 m/s 762 mmHg 73%
    08:00 +7°C° 0.2 mm 2 m/s 763 mmHg 72%
    09:00 +8°C° 0.2 mm 2 m/s 763 mmHg 72%
    10:00 +8°C° 0.1 mm 3 m/s 763 mmHg 69%
    11:00 +9°C° 0.1 mm 3 m/s 763 mmHg 66%
    12:00 +9°C° 0.1 mm 3 m/s 764 mmHg 64%
    13:00 +10°C° 0 mm 3 m/s 764 mmHg 59%
    14:00 +10°C° 0 mm 3 m/s 764 mmHg 55%
    15:00 +11°C° 0 mm 3 m/s 764 mmHg 51%
    16:00 +10°C° 0 mm 3 m/s 764 mmHg 56%
    17:00 +8°C° 0 mm 3 m/s 764 mmHg 60%
    18:00 +7°C° 0 mm 2 m/s 765 mmHg 64%
    19:00 +7°C° 0 mm 2 m/s 765 mmHg 67%
    20:00 +5°C° 0 mm 3 m/s 765 mmHg 70%
    21:00 +5°C° 0 mm 3 m/s 766 mmHg 72%
    22:00 +4°C° 0 mm 3 m/s 766 mmHg 74%
    23:00 +3°C° 0 mm 3 m/s 766 mmHg 75%
    Arată mai mult